Temp
67 66 66 65 64 65 65 65 63 63 64 65 65 64 64 63 63 62 61 60 60 60 60 60 58 58 56 55 55 55 55 54 54 53 52 52 52 51 50 51 52 52 51 51 50 50 50 50 49 49 49 47 46 46 45 44 44 43 43 43 42 40 40 41 40 39 39 39 39
67 66 65 63 63 64 65 65 63 63 64 65 65 65 65 64 63 63 62 61 61 61 60 60 59 58 57 55 55 55 55 54 54 53 52 52 52 51 51 51 52 52 52 52 51 51 51 50 51 50 49 48 47 46 45 43 43 43 43 43 41 40 40 42 41 40 40 40 39
67 67 66 66 66 66 66 65 65 64 64 65 65 65 65 64 64 63 63 62 62 62 61 61 60 58 56 55 56 56 55 55 54 54 53 53 52 51 52 52 52 53 53 52 52 52 52 51 51 51 50 49 48 47 46 43 43 44 44 43 42 41 42 44 42 41 40 40 39
67 67 67 66 66 65 66 66 65 65 65 65 65 65 65 65 64 64 63 62 62 61 61 62 61 59 57 57 56 55 54 53 54 54 53 53 52 52 52 52 53 53 53 52 52 52 52 51 52 51 50 48 47 47 46 45 44 44 45 43 43 43 44 45 42 42 41 41 39
68 68 67 67 66 66 66 67 65 65 65 66 66 65 65 65 64 64 63 62 62 62 61 61 61 60 58 57 55 54 53 52 52 53 54 53 53 52 52 52 53 53 53 53 52 52 52 51 52 51 49 48 49 48 47 45 44 45 45 45 44 44 44 44 43 42 41 40 39
68 68 68 68 66 66 66 67 65 65 65 66 65 65 65 65 64 63 63 62 62 61 59 59 59 59 57 56 55 54 53 52 53 54 54 54 53 53 53 53 54 54 54 53 53 52 51 51 51 50 48 47 47 46 45 45 46 46 46 46 45 44 44 43 42 42 41 40 40
69 69 68 68 67 67 67 67 66 66 66 66 64 64 64 64 64 63 62 62 61 60 59 58 59 58 57 56 55 55 54 53 53 53 54 54 54 54 54 54 54 54 54 54 53 52 51 51 52 50 47 47 47 46 45 46 47 47 47 46 45 43 43 42 41 41 42 42 41
70 69 69 69 68 67 67 67 66 66 65 66 65 64 63 64 63 62 61 61 61 60 60 60 60 59 58 58 57 56 55 54 54 54 54 55 54 55 55 54 54 54 54 54 53 52 51 51 52 50 48 48 48 47 45 46 47 48 47 46 44 43 41 41 41 42 43 43 42
70 70 70 69 68 68 67 67 66 66 65 65 65 64 63 63 63 62 61 61 60 60 61 61 60 59 58 58 58 57 57 56 55 55 54 55 55 55 55 55 54 54 54 54 53 52 51 52 52 50 49 50 49 48 47 47 48 47 46 45 44 43 42 41 42 43 43 43 42
70 70 70 69 68 68 68 67 67 66 65 65 63 62 62 60 61 62 62 62 61 60 61 61 60 59 58 58 58 59 58 58 57 56 56 56 56 56 56 56 55 55 54 54 53 52 52 52 51 49 48 48 48 47 47 47 48 48 47 46 46 45 44 42 43 43 43 42 41
70 70 70 70 69 68 67 67 67 66 65 65 63 62 62 61 61 62 62 63 61 60 60 61 60 59 59 59 59 60 60 59 58 58 57 57 57 57 57 56 56 55 55 54 53 52 52 52 51 49 48 47 48 47 47 47 48 48 48 47 46 46 46 44 43 42 42 41 41
70 70 71 70 69 68 68 67 67 66 66 66 64 63 63 63 63 62 62 62 60 60 60 61 60 60 60 60 60 60 60 60 59 58 58 58 57 57 57 56 56 55 55 54 53 53 53 52 51 49 48 47 48 49 49 48 48 49 48 47 47 47 47 45 44 43 42 41 41
71 71 71 70 69 69 68 67 68 67 66 66 64 64 64 64 63 62 62 61 60 60 61 61 60 60 60 60 60 60 60 60 60 59 59 58 58 57 56 55 55 55 55 55 54 54 54 53 51 50 49 49 49 49 49 49 49 49 48 47 46 46 46 45 44 43 42 41 41
71 71 71 70 69 69 68 68 68 67 67 66 65 65 65 64 63 62 62 62 61 61 61 61 60 60 61 61 61 61 61 61 60 59 59 58 58 57 56 55 55 55 55 55 54 54 54 53 51 51 51 50 50 50 50 50 50 49 48 47 46 46 46 45 45 43 42 41 40
71 71 70 70 69 69 68 68 68 68 67 66 65 65 65 65 63 62 62 62 62 62 62 61 61 60 60 61 61 61 61 61 60 60 59 58 58 57 57 56 55 55 55 55 54 54 53 53 52 52 52 52 51 51 50 50 50 49 48 47 47 46 46 46 44 43 42 42 40
71 71 70 70 69 69 69 68 69 68 67 66 66 66 65 65 64 63 62 62 62 62 62 61 61 61 61 60 61 61 61 61 60 59 59 58 58 57 57 57 56 55 54 54 54 53 53 53 52 52 53 52 52 52 51 51 50 49 48 47 47 47 46 46 45 44 43 42 41
71 71 70 70 69 69 69 69 69 69 68 67 66 66 66 65 65 63 62 62 63 63 62 62 62 62 61 59 60 61 61 60 60 59 59 58 58 57 57 57 56 55 55 54 54 54 54 52 52 53 53 53 53 53 52 51 49 48 48 47 47 47 47 46 46 45 44 42 42
71 71 71 70 69 69 69 69 69 68 68 67 66 66 66 65 65 63 62 62 63 63 62 61 62 62 61 60 60 61 60 60 60 59 59 59 58 57 57 57 56 55 55 55 54 54 54 53 53 53 53 53 53 52 51 50 49 48 48 47 47 47 46 46 46 46 45 44 43
71 71 71 70 70 69 69 68 68 68 68 67 66 66 66 65 64 63 63 62 62 62 62 61 61 61 61 61 61 60 60 60 59 59 59 59 58 58 57 57 56 55 55 55 55 55 54 54 53 53 53 53 52 51 50 49 48 48 47 47 47 46 46 46 46 46 45 44 43
71 71 71 71 70 70 69 69 69 68 68 67 67 66 65 64 64 63 62 62 61 61 61 62 61 61 61 60 60 60 60 60 59 59 59 59 59 58 57 57 56 56 55 55 55 55 55 54 54 53 53 52 51 50 49 48 47 47 47 47 46 46 46 46 45 45 44 43 42
72 72 72 72 71 71 70 70 69 69 68 67 66 66 65 64 63 62 62 62 61 61 61 61 61 61 60 60 60 60 60 60 59 59 59 59 58 58 58 57 56 56 56 55 55 55 55 54 54 53 52 51 50 49 48 47 47 47 47 47 46 45 45 44 44 43 42 41 41
73 73 73 72 72 71 71 70 69 69 68 67 66 65 65 64 63 62 61 61 60 60 60 60 60 60 60 60 60 60 60 59 59 59 59 58 58 58 57 57 57 56 56 55 55 55 54 54 53 52 51 50 49 48 47 47 47 47 47 46 46 45 43 42 41 40 40 39 39
73 73 73 72 71 70 69 69 68 68 67 67 66 65 64 63 62 61 61 60 60 59 59 59 59 60 61 60 60 60 59 58 58 58 58 58 57 58 58 57 57 56 56 55 55 54 53 52 51 50 49 48 48 48 47 47 47 47 47 46 45 44 43 41 39 38 38 38 38
70 71 70 69 68 67 66 65 65 65 65 65 65 65 64 63 62 61 60 60 60 60 59 59 60 59 59 60 59 59 58 58 58 58 57 57 57 57 58 58 57 56 55 53 51 50 49 49 49 49 49 48 48 48 47 47 47 47 46 45 45 44 42 40 38 37 37 36 37
67 66 66 65 63 62 61 60 60 61 62 63 63 63 63 62 61 61 60 60 60 59 58 58 59 58 58 58 58 58 58 58 57 57 57 56 57 57 57 57 56 55 53 50 48 47 46 45 47 48 49 49 48 47 46 45 45 45 45 44 43 43 42 40 38 37 36 36 36
64 63 61 60 60 60 59 59 58 58 58 59 59 60 60 61 60 60 60 59 59 58 58 57 58 57 57 58 58 58 57 57 56 56 56 56 56 56 56 55 54 52 51 48 45 44 44 44 44 45 47 49 48 46 45 44 43 43 43 42 42 41 41 40 39 37 36 35 35
62 61 59 59 59 58 58 57 57 56 57 57 57 58 58 59 60 60 59 59 59 58 58 57 57 56 55 57 57 57 57 56 55 55 56 56 56 55 54 54 53 51 49 46 43 42 43 43 43 43 45 47 47 46 45 44 42 42 41 41 40 40 40 39 39 37 36 35 35
61 60 59 59 58 58 57 57 56 55 55 56 56 57 58 59 59 60 59 59 58 57 57 57 56 55 55 56 57 57 56 56 55 55 55 56 55 55 54 54 53 50 47 44 43 42 43 43 43 43 43 43 45 45 44 43 42 41 40 40 39 38 38 38 38 37 36 36 35
60 60 60 60 58 58 57 56 56 55 55 55 56 56 57 57 58 58 58 58 56 55 55 55 54 53 53 54 55 55 55 56 55 55 55 55 54 54 54 53 51 48 44 42 43 43 43 43 43 42 42 42 44 45 44 43 42 41 40 39 38 37 37 36 36 35 35 35 35
59 59 59 59 58 58 57 57 56 56 55 55 55 56 56 56 57 57 57 56 56 54 53 52 52 52 53 53 53 53 54 55 55 54 54 54 53 53 52 51 50 47 44 42 43 43 43 43 42 42 41 41 42 43 43 42 41 40 39 38 36 36 35 35 35 35 34 34 34
59 59 58 58 58 58 58 57 56 55 55 55 55 56 56 56 56 56 56 55 54 53 52 51 52 52 53 53 52 53 53 54 54 53 53 52 50 50 50 49 49 47 44 42 43 43 43 43 42 42 41 40 41 41 42 41 40 40 39 38 36 35 35 35 35 34 34 34 34
58 58 58 58 58 58 57 56 56 55 55 54 54 55 55 54 54 54 54 53 51 51 51 52 52 52 53 53 52 53 53 53 52 51 50 49 49 49 49 48 47 45 43 42 42 42 42 42 42 42 41 40 40 40 40 40 39 38 37 36 36 36 36 36 36 35 35 35 35
57 58 58 58 58 57 56 55 54 54 54 53 53 53 53 53 53 53 53 51 50 50 51 51 51 52 52 52 52 52 51 51 50 48 48 48 48 48 47 46 47 45 42 41 42 42 42 42 42 41 41 40 40 39 39 38 37 36 35 35 35 35 35 36 37 37 36 36 36
57 57 57 57 56 56 55 54 53 53 52 52 52 52 52 52 52 52 51 49 49 50 50 51 51 51 52 51 51 50 50 48 48 48 48 48 48 47 46 46 46 44 42 41 41 41 41 41 41 41 41 40 39 38 36 36 35 35 35 35 34 34 34 35 35 35 36 35 35
57 56 56 56 55 54 53 53 52 52 52 51 51 52 52 51 51 50 49 48 48 49 50 50 51 51 51 50 50 49 48 48 48 47 47 47 46 45 45 45 44 43 41 40 40 40 41 41 41 41 40 39 36 35 34 34 34 35 35 34 34 34 34 34 34 34 34 33 33
56 56 55 55 54 53 52 52 52 52 51 51 51 51 51 51 50 49 48 47 48 49 50 50 50 50 49 49 48 47 47 47 47 46 46 46 45 45 44 43 42 41 40 40 40 40 40 41 40 40 39 37 34 33 33 33 34 34 34 34 34 34 34 33 33 33 33 32 32
55 55 55 54 54 53 52 52 52 52 51 50 50 51 51 50 49 49 48 48 49 49 49 49 49 49 49 48 47 46 46 46 46 45 44 44 44 44 43 42 41 39 38 39 40 40 40 41 40 40 38 36 34 33 33 33 33 33 33 33 33 33 33 33 32 32 31 31 31
55 55 55 54 53 53 52 53 52 52 51 50 50 50 50 50 49 48 47 47 48 48 48 47 47 47 47 47 46 45 45 45 44 44 43 43 43 43 42 41 40 38 37 38 39 40 40 40 40 39 38 35 34 33 33 33 32 32 32 32 32 32 32 31 31 31 30 30 32
54 55 55 54 53 52 52 52 52 51 50 50 50 50 49 49 48 48 47 47 48 48 47 46 45 45 45 45 44 44 43 42 42 43 43 42 42 41 41 40 39 37 37 38 39 39 40 40 40 39 38 35 34 33 33 32 32 31 31 31 31 31 31 30 30 30 29 29 34
54 54 54 54 53 52 52 52 51 50 49 49 49 49 48 47 47 47 47 46 46 46 46 45 44 43 42 42 42 42 41 40 41 41 41 41 40 40 40 39 38 37 36 37 38 39 39 40 39 39 37 33 33 32 31 31 31 30 29 29 29 29 30 29 29 29 29 28 32
54 54 53 53 53 52 52 50 49 49 48 48 48 47 47 46 46 46 45 45 44 44 44 44 42 41 40 40 40 40 40 39 39 39 39 39 39 39 39 38 38 37 36 37 38 38 39 39 39 38 36 32 31 30 30 29 29 28 28 28 28 28 29 29 28 28 28 28 28
MSLP
1014.51 1014.67 1014.83 1014.91 1015.07 1015.27 1015.43 1015.59 1015.75 1015.87 1016.03 1016.19 1016.39 1016.59 1016.75 1016.99 1017.19 1017.39 1017.59 1017.75 1017.87 1018.03 1018.19 1018.39 1018.59 1018.75 1018.95 1019.11 1019.27 1019.39 1019.43 1019.59 1019.75 1019.87 1019.99 1020.11 1020.27 1020.43 1020.55 1020.67 1020.75 1020.87 1021.03 1021.19 1021.31 1021.47 1021.59 1021.75 1021.87 1022.07 1022.23 1022.35 1022.51 1022.67 1022.79 1022.87 1022.95 1023.03 1023.11 1023.19 1023.35 1023.47 1023.63 1023.83 1024.03 1024.19 1024.35 1024.47 1024.51
1014.35 1014.51 1014.63 1014.79 1014.99 1015.15 1015.31 1015.47 1015.67 1015.79 1015.91 1016.03 1016.15 1016.35 1016.55 1016.75 1016.99 1017.19 1017.39 1017.59 1017.71 1017.87 1018.03 1018.23 1018.47 1018.63 1018.83 1018.99 1019.11 1019.19 1019.31 1019.47 1019.59 1019.75 1019.91 1020.03 1020.15 1020.31 1020.47 1020.59 1020.67 1020.79 1020.91 1021.11 1021.27 1021.43 1021.59 1021.71 1021.87 1022.03 1022.19 1022.31 1022.47 1022.59 1022.67 1022.75 1022.83 1022.95 1023.07 1023.19 1023.31 1023.43 1023.59 1023.75 1023.91 1024.07 1024.23 1024.31 1024.47
1014.19 1014.35 1014.55 1014.67 1014.83 1014.99 1015.15 1015.35 1015.47 1015.59 1015.75 1015.87 1016.03 1016.15 1016.31 1016.55 1016.75 1016.91 1017.15 1017.31 1017.47 1017.67 1017.87 1018.03 1018.23 1018.43 1018.59 1018.79 1018.91 1019.03 1019.15 1019.31 1019.43 1019.63 1019.83 1019.99 1020.15 1020.27 1020.39 1020.47 1020.59 1020.71 1020.83 1020.99 1021.15 1021.31 1021.43 1021.59 1021.75 1021.95 1022.15 1022.31 1022.43 1022.51 1022.59 1022.75 1022.75 1022.87 1023.03 1023.15 1023.31 1023.43 1023.59 1023.75 1023.87 1024.03 1024.15 1024.27 1024.39
1014.03 1014.19 1014.39 1014.51 1014.63 1014.75 1014.87 1015.03 1015.19 1015.39 1015.55 1015.67 1015.83 1016.03 1016.15 1016.31 1016.55 1016.75 1016.91 1017.15 1017.35 1017.55 1017.67 1017.75 1017.95 1018.15 1018.39 1018.59 1018.75 1018.91 1019.03 1019.19 1019.31 1019.51 1019.71 1019.87 1020.03 1020.15 1020.31 1020.39 1020.51 1020.63 1020.75 1020.91 1021.03 1021.19 1021.39 1021.55 1021.75 1021.91 1022.11 1022.27 1022.43 1022.47 1022.55 1022.67 1022.75 1022.87 1022.95 1023.15 1023.27 1023.43 1023.59 1023.75 1023.87 1023.99 1024.11 1024.27 1024.39
1013.87 1013.99 1014.11 1014.23 1014.39 1014.47 1014.59 1014.71 1014.91 1015.15 1015.35 1015.51 1015.71 1015.87 1016.03 1016.15 1016.35 1016.59 1016.83 1017.03 1017.19 1017.31 1017.39 1017.55 1017.75 1017.99 1018.23 1018.47 1018.67 1018.87 1019.03 1019.19 1019.31 1019.43 1019.59 1019.83 1019.99 1020.07 1020.19 1020.35 1020.47 1020.59 1020.71 1020.87 1020.99 1021.15 1021.31 1021.55 1021.71 1021.87 1022.07 1022.23 1022.35 1022.43 1022.47 1022.59 1022.75 1022.87 1023.03 1023.15 1023.31 1023.43 1023.59 1023.75 1023.87 1023.99 1024.11 1024.27 1024.39
1013.63 1013.75 1013.87 1014.03 1014.15 1014.31 1014.47 1014.59 1014.75 1014.99 1015.19 1015.35 1015.55 1015.71 1015.87 1016.03 1016.15 1016.35 1016.59 1016.75 1016.87 1017.03 1017.23 1017.43 1017.63 1017.87 1018.11 1018.35 1018.59 1018.79 1018.99 1019.15 1019.31 1019.43 1019.55 1019.75 1019.87 1020.03 1020.15 1020.27 1020.35 1020.47 1020.67 1020.83 1020.95 1021.11 1021.27 1021.47 1021.67 1021.87 1022.07 1022.19 1022.31 1022.35 1022.47 1022.59 1022.75 1022.95 1023.15 1023.31 1023.43 1023.51 1023.59 1023.75 1023.87 1024.03 1024.15 1024.31 1024.47
1013.35 1013.51 1013.67 1013.79 1014.03 1014.15 1014.31 1014.47 1014.63 1014.87 1015.03 1015.19 1015.31 1015.43 1015.55 1015.67 1015.83 1016.03 1016.19 1016.35 1016.59 1016.87 1017.15 1017.31 1017.51 1017.75 1017.95 1018.19 1018.47 1018.63 1018.87 1019.11 1019.27 1019.39 1019.47 1019.67 1019.87 1019.99 1020.11 1020.23 1020.35 1020.47 1020.59 1020.75 1020.91 1021.07 1021.19 1021.39 1021.55 1021.75 1021.95 1022.03 1022.19 1022.31 1022.47 1022.59 1022.75 1022.99 1023.23 1023.43 1023.55 1023.59 1023.71 1023.83 1023.95 1024.07 1024.23 1024.43 1024.59
1013.15 1013.31 1013.43 1013.59 1013.79 1013.95 1014.11 1014.27 1014.47 1014.67 1014.87 1014.95 1015.07 1015.15 1015.19 1015.35 1015.51 1015.75 1015.95 1016.15 1016.47 1016.67 1016.87 1017.07 1017.27 1017.43 1017.67 1017.91 1018.15 1018.35 1018.59 1018.87 1019.07 1019.27 1019.43 1019.55 1019.75 1019.91 1020.03 1020.19 1020.35 1020.47 1020.55 1020.67 1020.87 1021.03 1021.15 1021.31 1021.35 1021.51 1021.67 1021.79 1021.95 1022.15 1022.31 1022.47 1022.67 1022.95 1023.27 1023.47 1023.59 1023.71 1023.79 1023.87 1023.95 1024.07 1024.27 1024.47 1024.71
1013.03 1013.11 1013.23 1013.39 1013.59 1013.75 1013.87 1014.03 1014.23 1014.43 1014.59 1014.63 1014.71 1014.79 1014.91 1015.07 1015.27 1015.51 1015.75 1015.99 1016.19 1016.39 1016.59 1016.83 1017.03 1017.19 1017.43 1017.63 1017.87 1018.03 1018.27 1018.47 1018.75 1018.99 1019.15 1019.35 1019.51 1019.75 1019.91 1020.11 1020.31 1020.43 1020.47 1020.59 1020.79 1020.99 1021.15 1021.27 1021.31 1021.39 1021.47 1021.59 1021.75 1021.99 1022.15 1022.35 1022.59 1022.87 1023.15 1023.43 1023.63 1023.75 1023.83 1023.87 1024.03 1024.07 1024.23 1024.47 1024.79
1012.79 1012.91 1013.03 1013.19 1013.39 1013.55 1013.71 1013.87 1014.03 1014.15 1014.27 1014.35 1014.47 1014.59 1014.75 1014.87 1015.07 1015.27 1015.47 1015.63 1015.91 1016.19 1016.39 1016.51 1016.75 1017.03 1017.27 1017.43 1017.63 1017.83 1017.99 1018.19 1018.47 1018.67 1018.87 1019.03 1019.15 1019.35 1019.55 1019.75 1019.99 1020.15 1020.31 1020.55 1020.75 1021.03 1021.23 1021.35 1021.43 1021.51 1021.55 1021.59 1021.75 1021.95 1022.15 1022.35 1022.51 1022.71 1022.99 1023.31 1023.55 1023.75 1023.83 1023.91 1023.99 1024.03 1024.23 1024.55 1024.75
1012.51 1012.63 1012.75 1012.91 1013.11 1013.31 1013.51 1013.71 1013.87 1013.99 1014.07 1014.15 1014.31 1014.47 1014.59 1014.75 1014.87 1015.03 1015.15 1015.43 1015.75 1016.03 1016.15 1016.27 1016.55 1016.83 1017.07 1017.27 1017.43 1017.59 1017.79 1018.03 1018.23 1018.47 1018.63 1018.75 1018.91 1019.03 1019.19 1019.39 1019.67 1019.95 1020.23 1020.51 1020.79 1021.03 1021.27 1021.39 1021.55 1021.63 1021.67 1021.67 1021.79 1021.99 1022.19 1022.39 1022.47 1022.59 1022.79 1023.11 1023.35 1023.59 1023.71 1023.83 1023.87 1024.07 1024.31 1024.59 1024.59
1012.23 1012.35 1012.47 1012.59 1012.79 1013.03 1013.27 1013.47 1013.63 1013.79 1013.87 1013.99 1014.15 1014.31 1014.47 1014.59 1014.71 1014.87 1015.07 1015.31 1015.59 1015.75 1015.91 1016.11 1016.35 1016.59 1016.83 1017.03 1017.23 1017.43 1017.67 1017.87 1018.11 1018.31 1018.47 1018.59 1018.75 1018.87 1019.03 1019.31 1019.63 1019.95 1020.23 1020.47 1020.71 1020.91 1021.07 1021.23 1021.43 1021.59 1021.67 1021.71 1021.79 1021.95 1022.15 1022.31 1022.39 1022.51 1022.71 1022.99 1023.23 1023.43 1023.51 1023.59 1023.79 1024.07 1024.31 1024.47 1024.55
1011.99 1012.11 1012.23 1012.39 1012.55 1012.79 1013.03 1013.23 1013.35 1013.51 1013.67 1013.79 1013.91 1014.03 1014.19 1014.35 1014.51 1014.75 1014.91 1015.15 1015.31 1015.51 1015.75 1015.99 1016.15 1016.43 1016.63 1016.87 1017.07 1017.31 1017.47 1017.71 1017.91 1018.15 1018.31 1018.47 1018.59 1018.79 1019.03 1019.31 1019.67 1019.95 1020.15 1020.35 1020.51 1020.67 1020.79 1020.95 1021.15 1021.35 1021.47 1021.59 1021.71 1021.83 1021.99 1022.15 1022.23 1022.39 1022.63 1022.91 1023.15 1023.27 1023.35 1023.47 1023.75 1023.99 1024.19 1024.31 1024.35
1011.75 1011.87 1011.99 1012.15 1012.31 1012.59 1012.79 1012.99 1013.11 1013.23 1013.39 1013.55 1013.67 1013.79 1013.95 1014.15 1014.35 1014.55 1014.75 1014.87 1015.07 1015.31 1015.59 1015.87 1016.11 1016.31 1016.47 1016.67 1016.87 1017.07 1017.27 1017.43 1017.71 1017.91 1018.15 1018.31 1018.51 1018.71 1018.99 1019.27 1019.59 1019.79 1019.99 1020.11 1020.27 1020.47 1020.63 1020.83 1021.03 1021.15 1021.31 1021.43 1021.59 1021.75 1021.87 1021.91 1022.07 1022.27 1022.55 1022.79 1023.03 1023.11 1023.19 1023.39 1023.63 1023.87 1024.07 1024.15 1024.19
1011.51 1011.63 1011.75 1011.87 1012.11 1012.31 1012.51 1012.67 1012.83 1012.91 1013.07 1013.23 1013.39 1013.51 1013.71 1013.91 1014.15 1014.35 1014.51 1014.71 1014.91 1015.15 1015.43 1015.75 1015.95 1016.15 1016.31 1016.47 1016.71 1016.87 1017.07 1017.27 1017.47 1017.71 1017.91 1018.15 1018.35 1018.59 1018.79 1019.03 1019.31 1019.55 1019.75 1019.99 1020.15 1020.35 1020.51 1020.71 1020.87 1021.03 1021.15 1021.31 1021.51 1021.63 1021.75 1021.87 1022.03 1022.19 1022.47 1022.67 1022.83 1022.95 1023.07 1023.31 1023.55 1023.79 1023.99 1024.03 1024.07
1011.27 1011.35 1011.47 1011.67 1011.83 1012.03 1012.19 1012.35 1012.47 1012.59 1012.75 1012.91 1013.03 1013.23 1013.43 1013.63 1013.87 1014.15 1014.35 1014.55 1014.79 1015.03 1015.27 1015.51 1015.75 1015.99 1016.19 1016.35 1016.51 1016.75 1016.91 1017.15 1017.31 1017.51 1017.71 1017.91 1018.15 1018.39 1018.59 1018.79 1019.03 1019.31 1019.59 1019.87 1020.11 1020.27 1020.43 1020.55 1020.67 1020.79 1020.99 1021.15 1021.35 1021.55 1021.71 1021.87 1022.03 1022.23 1022.47 1022.63 1022.75 1022.87 1023.03 1023.27 1023.51 1023.71 1023.83 1023.87 1023.91
1010.99 1011.07 1011.19 1011.35 1011.51 1011.67 1011.83 1011.95 1012.07 1012.19 1012.35 1012.55 1012.75 1012.95 1013.15 1013.31 1013.59 1013.87 1014.15 1014.31 1014.59 1014.83 1015.07 1015.27 1015.47 1015.75 1016.03 1016.19 1016.35 1016.55 1016.75 1016.95 1017.15 1017.31 1017.51 1017.75 1017.95 1018.19 1018.39 1018.59 1018.87 1019.15 1019.47 1019.75 1019.91 1020.11 1020.27 1020.39 1020.51 1020.63 1020.79 1021.03 1021.23 1021.43 1021.59 1021.79 1022.03 1022.27 1022.47 1022.63 1022.75 1022.91 1023.07 1023.23 1023.43 1023.59 1023.67 1023.75 1023.75
1010.67 1010.79 1010.91 1011.03 1011.15 1011.31 1011.39 1011.55 1011.67 1011.79 1011.95 1012.19 1012.47 1012.63 1012.87 1013.07 1013.31 1013.59 1013.87 1014.03 1014.31 1014.51 1014.75 1015.03 1015.23 1015.47 1015.75 1015.95 1016.15 1016.35 1016.55 1016.75 1016.91 1017.11 1017.31 1017.51 1017.75 1018.03 1018.27 1018.47 1018.71 1019.03 1019.31 1019.59 1019.75 1019.87 1020.07 1020.27 1020.43 1020.55 1020.75 1020.95 1021.15 1021.31 1021.51 1021.75 1022.03 1022.31 1022.47 1022.63 1022.83 1022.99 1023.07 1023.19 1023.31 1023.43 1023.47 1023.59 1023.55
1010.35 1010.47 1010.59 1010.71 1010.79 1010.87 1010.99 1011.15 1011.27 1011.43 1011.59 1011.87 1012.11 1012.31 1012.59 1012.79 1013.03 1013.31 1013.59 1013.87 1014.03 1014.23 1014.47 1014.75 1015.03 1015.27 1015.43 1015.67 1015.91 1016.15 1016.31 1016.55 1016.75 1016.91 1017.11 1017.31 1017.59 1017.83 1018.07 1018.35 1018.67 1018.95 1019.23 1019.47 1019.63 1019.75 1019.87 1020.11 1020.31 1020.47 1020.67 1020.87 1021.03 1021.23 1021.47 1021.79 1022.07 1022.31 1022.47 1022.63 1022.83 1022.95 1023.03 1023.11 1023.15 1023.23 1023.27 1023.31 1023.27
1010.03 1010.15 1010.23 1010.27 1010.35 1010.47 1010.63 1010.75 1010.87 1011.03 1011.31 1011.55 1011.83 1012.11 1012.35 1012.59 1012.79 1013.07 1013.39 1013.63 1013.87 1014.03 1014.31 1014.55 1014.83 1015.07 1015.31 1015.51 1015.75 1015.91 1016.15 1016.31 1016.55 1016.75 1016.95 1017.15 1017.39 1017.59 1017.87 1018.15 1018.55 1018.87 1019.11 1019.31 1019.43 1019.59 1019.71 1019.87 1020.11 1020.31 1020.47 1020.75 1020.95 1021.19 1021.55 1021.87 1022.15 1022.31 1022.47 1022.63 1022.75 1022.87 1022.95 1023.03 1023.03 1023.03 1023.07 1023.03 1023.03
1009.63 1009.71 1009.75 1009.83 1009.95 1010.07 1010.23 1010.39 1010.55 1010.75 1011.03 1011.31 1011.59 1011.83 1012.07 1012.31 1012.63 1012.87 1013.11 1013.35 1013.67 1013.99 1014.19 1014.39 1014.59 1014.87 1015.15 1015.39 1015.59 1015.79 1015.99 1016.15 1016.43 1016.59 1016.79 1016.99 1017.23 1017.43 1017.67 1017.99 1018.31 1018.67 1018.91 1019.11 1019.31 1019.47 1019.59 1019.75 1019.95 1020.15 1020.39 1020.59 1020.87 1021.19 1021.55 1021.87 1022.11 1022.31 1022.47 1022.59 1022.67 1022.75 1022.87 1022.87 1022.91 1022.91 1022.91 1022.87 1022.83
1009.15 1009.19 1009.27 1009.39 1009.51 1009.67 1009.87 1010.03 1010.31 1010.59 1010.87 1011.15 1011.35 1011.59 1011.87 1012.11 1012.43 1012.71 1012.95 1013.23 1013.59 1013.87 1014.11 1014.31 1014.47 1014.71 1014.95 1015.23 1015.43 1015.63 1015.87 1016.07 1016.31 1016.47 1016.67 1016.87 1017.11 1017.31 1017.55 1017.75 1018.07 1018.43 1018.75 1018.99 1019.19 1019.43 1019.63 1019.75 1019.95 1020.15 1020.35 1020.59 1020.87 1021.19 1021.51 1021.83 1022.03 1022.27 1022.43 1022.47 1022.59 1022.67 1022.75 1022.79 1022.83 1022.87 1022.79 1022.71 1022.63
1008.59 1008.71 1008.83 1008.99 1009.15 1009.35 1009.59 1009.87 1010.23 1010.55 1010.83 1011.07 1011.27 1011.47 1011.75 1011.99 1012.27 1012.59 1012.91 1013.27 1013.55 1013.79 1014.03 1014.23 1014.43 1014.59 1014.79 1015.03 1015.27 1015.51 1015.75 1015.99 1016.23 1016.43 1016.59 1016.87 1017.07 1017.31 1017.47 1017.67 1017.95 1018.27 1018.59 1018.87 1019.11 1019.35 1019.59 1019.79 1019.95 1020.15 1020.35 1020.59 1020.91 1021.23 1021.51 1021.79 1022.03 1022.15 1022.31 1022.39 1022.47 1022.59 1022.63 1022.71 1022.75 1022.75 1022.71 1022.59 1022.47
1008.23 1008.35 1008.55 1008.75 1009.03 1009.31 1009.59 1009.95 1010.39 1010.75 1011.03 1011.19 1011.31 1011.51 1011.75 1011.95 1012.27 1012.59 1012.91 1013.19 1013.43 1013.71 1013.99 1014.23 1014.47 1014.59 1014.75 1014.95 1015.15 1015.43 1015.67 1015.91 1016.15 1016.39 1016.59 1016.79 1017.03 1017.27 1017.43 1017.67 1017.91 1018.19 1018.51 1018.75 1018.99 1019.23 1019.47 1019.75 1019.87 1020.07 1020.31 1020.59 1020.87 1021.15 1021.43 1021.75 1021.87 1022.03 1022.15 1022.31 1022.43 1022.47 1022.51 1022.55 1022.59 1022.67 1022.59 1022.47 1022.39
1008.07 1008.27 1008.47 1008.75 1009.03 1009.39 1009.75 1010.19 1010.75 1011.27 1011.59 1011.59 1011.55 1011.63 1011.87 1012.11 1012.35 1012.63 1012.91 1013.15 1013.35 1013.63 1013.91 1014.19 1014.43 1014.63 1014.83 1014.99 1015.15 1015.39 1015.59 1015.87 1016.11 1016.31 1016.55 1016.75 1016.99 1017.19 1017.43 1017.67 1017.95 1018.23 1018.51 1018.79 1018.95 1019.11 1019.31 1019.55 1019.75 1019.99 1020.27 1020.59 1020.87 1021.15 1021.39 1021.59 1021.79 1021.91 1022.07 1022.19 1022.31 1022.39 1022.43 1022.47 1022.47 1022.51 1022.47 1022.35 1022.23
1008.03 1008.31 1008.59 1008.83 1009.15 1009.47 1009.83 1010.19 1010.83 1011.55 1011.99 1011.87 1011.75 1011.87 1012.07 1012.31 1012.47 1012.67 1012.87 1013.11 1013.31 1013.55 1013.87 1014.15 1014.35 1014.59 1014.75 1014.91 1015.15 1015.39 1015.59 1015.87 1016.11 1016.39 1016.63 1016.79 1016.99 1017.19 1017.43 1017.71 1017.99 1018.27 1018.55 1018.83 1019.03 1019.15 1019.31 1019.47 1019.71 1019.99 1020.27 1020.55 1020.87 1021.15 1021.35 1021.59 1021.71 1021.87 1022.03 1022.11 1022.19 1022.27 1022.31 1022.35 1022.35 1022.31 1022.27 1022.11 1021.99
1008.03 1008.35 1008.63 1008.87 1009.15 1009.51 1009.75 1010.03 1010.67 1011.43 1011.95 1011.99 1011.87 1011.95 1012.15 1012.35 1012.47 1012.67 1012.87 1013.03 1013.27 1013.51 1013.83 1014.07 1014.31 1014.51 1014.71 1014.87 1015.11 1015.35 1015.59 1015.87 1016.15 1016.47 1016.75 1016.95 1017.15 1017.35 1017.59 1017.79 1018.03 1018.27 1018.55 1018.87 1019.15 1019.27 1019.39 1019.55 1019.75 1020.03 1020.27 1020.51 1020.83 1021.11 1021.31 1021.47 1021.63 1021.79 1021.91 1022.03 1022.07 1022.15 1022.19 1022.19 1022.15 1022.11 1021.99 1021.87 1021.75
1008.07 1008.35 1008.67 1008.91 1009.15 1009.39 1009.63 1009.95 1010.51 1011.23 1011.75 1011.99 1011.95 1011.99 1012.11 1012.31 1012.47 1012.67 1012.87 1013.11 1013.43 1013.75 1013.99 1014.15 1014.31 1014.47 1014.71 1014.91 1015.15 1015.31 1015.55 1015.83 1016.11 1016.47 1016.79 1017.07 1017.27 1017.43 1017.67 1017.87 1018.03 1018.31 1018.59 1018.83 1019.03 1019.23 1019.43 1019.63 1019.83 1020.07 1020.31 1020.55 1020.79 1021.03 1021.23 1021.39 1021.55 1021.71 1021.79 1021.87 1021.95 1021.99 1022.03 1021.99 1021.91 1021.83 1021.75 1021.71 1021.63
1008.31 1008.55 1008.75 1008.99 1009.15 1009.35 1009.59 1009.95 1010.47 1011.03 1011.51 1011.83 1011.87 1011.95 1012.11 1012.31 1012.47 1012.67 1012.87 1013.19 1013.59 1013.91 1014.19 1014.31 1014.47 1014.67 1014.87 1015.03 1015.15 1015.35 1015.59 1015.87 1016.07 1016.39 1016.71 1017.03 1017.19 1017.39 1017.59 1017.75 1018.03 1018.31 1018.55 1018.75 1018.87 1019.11 1019.39 1019.63 1019.87 1020.07 1020.31 1020.51 1020.75 1020.91 1021.11 1021.27 1021.39 1021.55 1021.63 1021.75 1021.79 1021.83 1021.79 1021.75 1021.67 1021.59 1021.59 1021.59 1021.59
1008.79 1008.91 1008.95 1009.03 1009.23 1009.43 1009.67 1010.03 1010.47 1010.95 1011.35 1011.63 1011.75 1011.87 1012.07 1012.31 1012.55 1012.75 1012.99 1013.27 1013.59 1013.87 1014.15 1014.39 1014.63 1014.87 1015.07 1015.15 1015.31 1015.51 1015.75 1015.87 1016.07 1016.35 1016.67 1016.95 1017.15 1017.35 1017.59 1017.83 1018.11 1018.39 1018.63 1018.79 1018.91 1019.11 1019.31 1019.59 1019.83 1020.07 1020.31 1020.51 1020.67 1020.83 1020.99 1021.15 1021.27 1021.43 1021.55 1021.59 1021.63 1021.59 1021.55 1021.47 1021.47 1021.47 1021.47 1021.51 1021.55
1008.91 1009.03 1009.03 1009.11 1009.31 1009.59 1009.83 1010.11 1010.47 1010.91 1011.27 1011.47 1011.59 1011.79 1012.03 1012.31 1012.59 1012.83 1013.07 1013.31 1013.59 1013.87 1014.11 1014.35 1014.71 1014.99 1015.11 1015.23 1015.43 1015.59 1015.79 1015.99 1016.23 1016.47 1016.75 1016.99 1017.31 1017.59 1017.83 1018.07 1018.31 1018.51 1018.71 1018.87 1019.03 1019.15 1019.35 1019.59 1019.79 1019.99 1020.19 1020.43 1020.59 1020.75 1020.87 1021.03 1021.15 1021.27 1021.31 1021.35 1021.35 1021.31 1021.31 1021.31 1021.31 1021.31 1021.35 1021.39 1021.43
1008.67 1008.87 1008.99 1009.19 1009.43 1009.71 1009.95 1010.23 1010.59 1010.91 1011.23 1011.47 1011.63 1011.79 1012.03 1012.31 1012.55 1012.79 1013.07 1013.35 1013.67 1013.95 1014.23 1014.47 1014.75 1015.03 1015.15 1015.31 1015.47 1015.71 1015.91 1016.15 1016.39 1016.59 1016.87 1017.07 1017.35 1017.67 1017.95 1018.23 1018.47 1018.63 1018.75 1018.91 1019.03 1019.19 1019.39 1019.59 1019.79 1019.95 1020.11 1020.27 1020.47 1020.63 1020.75 1020.87 1020.99 1021.03 1021.03 1021.07 1021.07 1021.03 1021.03 1021.07 1021.11 1021.15 1021.15 1021.15 1021.19
1008.55 1008.63 1008.87 1009.19 1009.47 1009.75 1010.03 1010.35 1010.63 1010.95 1011.31 1011.67 1011.87 1011.99 1012.11 1012.31 1012.59 1012.83 1013.11 1013.43 1013.71 1013.99 1014.31 1014.59 1014.83 1015.03 1015.15 1015.31 1015.51 1015.79 1016.07 1016.35 1016.55 1016.75 1016.95 1017.15 1017.43 1017.75 1018.03 1018.27 1018.47 1018.59 1018.75 1018.91 1019.07 1019.23 1019.43 1019.59 1019.75 1019.87 1020.03 1020.15 1020.35 1020.51 1020.63 1020.75 1020.83 1020.87 1020.87 1020.87 1020.83 1020.83 1020.83 1020.87 1020.87 1020.87 1020.87 1020.95 1020.95
1008.59 1008.59 1008.75 1009.03 1009.31 1009.67 1010.03 1010.35 1010.59 1010.95 1011.35 1011.75 1011.95 1012.07 1012.19 1012.39 1012.67 1012.95 1013.15 1013.43 1013.67 1013.95 1014.27 1014.55 1014.75 1014.87 1015.03 1015.31 1015.55 1015.87 1016.19 1016.47 1016.63 1016.83 1017.03 1017.31 1017.59 1017.87 1018.15 1018.31 1018.47 1018.59 1018.75 1018.87 1019.03 1019.23 1019.43 1019.59 1019.67 1019.79 1019.91 1020.11 1020.31 1020.47 1020.59 1020.71 1020.75 1020.71 1020.67 1020.67 1020.63 1020.63 1020.67 1020.67 1020.71 1020.71 1020.71 1020.75 1020.79
1008.71 1008.71 1008.75 1008.87 1009.19 1009.63 1010.03 1010.35 1010.67 1011.03 1011.39 1011.75 1011.91 1012.03 1012.19 1012.43 1012.67 1012.87 1013.15 1013.39 1013.67 1013.95 1014.23 1014.47 1014.63 1014.87 1015.11 1015.39 1015.67 1015.99 1016.31 1016.51 1016.75 1016.91 1017.19 1017.47 1017.75 1018.03 1018.27 1018.43 1018.55 1018.63 1018.75 1018.91 1019.03 1019.23 1019.39 1019.51 1019.63 1019.75 1019.87 1020.11 1020.31 1020.47 1020.59 1020.59 1020.55 1020.47 1020.47 1020.55 1020.59 1020.59 1020.59 1020.59 1020.59 1020.59 1020.59 1020.67 1020.71
1008.99 1008.91 1008.87 1008.91 1009.27 1009.71 1010.11 1010.47 1010.83 1011.23 1011.59 1011.79 1011.91 1011.99 1012.15 1012.35 1012.59 1012.83 1013.07 1013.35 1013.67 1013.95 1014.15 1014.39 1014.63 1014.99 1015.31 1015.67 1015.95 1016.19 1016.39 1016.59 1016.87 1017.07 1017.31 1017.59 1017.83 1018.07 1018.31 1018.47 1018.63 1018.75 1018.83 1018.95 1019.07 1019.23 1019.35 1019.43 1019.55 1019.67 1019.87 1020.11 1020.31 1020.43 1020.39 1020.31 1020.31 1020.35 1020.47 1020.55 1020.59 1020.59 1020.55 1020.51 1020.51 1020.55 1020.59 1020.59 1020.63
1009.31 1009.27 1009.15 1009.15 1009.35 1009.71 1010.11 1010.51 1010.99 1011.43 1011.75 1011.79 1011.75 1011.83 1012.03 1012.27 1012.55 1012.79 1013.03 1013.31 1013.71 1014.03 1014.27 1014.47 1014.83 1015.15 1015.51 1015.83 1016.15 1016.39 1016.59 1016.75 1016.99 1017.27 1017.51 1017.71 1017.87 1018.15 1018.35 1018.55 1018.71 1018.83 1018.87 1018.99 1019.11 1019.19 1019.31 1019.39 1019.51 1019.67 1019.87 1020.07 1020.15 1020.15 1020.15 1020.15 1020.19 1020.35 1020.47 1020.51 1020.51 1020.47 1020.47 1020.47 1020.47 1020.55 1020.55 1020.59 1020.59
1009.63 1009.67 1009.67 1009.59 1009.59 1009.79 1010.15 1010.55 1010.95 1011.27 1011.47 1011.63 1011.75 1011.95 1012.15 1012.31 1012.59 1012.87 1013.11 1013.31 1013.71 1014.11 1014.47 1014.75 1015.07 1015.35 1015.59 1015.87 1016.23 1016.51 1016.75 1016.95 1017.15 1017.39 1017.63 1017.83 1018.03 1018.19 1018.39 1018.59 1018.75 1018.87 1018.95 1019.03 1019.11 1019.15 1019.23 1019.31 1019.39 1019.51 1019.67 1019.75 1019.83 1019.87 1019.91 1020.07 1020.19 1020.31 1020.43 1020.47 1020.47 1020.47 1020.47 1020.47 1020.59 1020.59 1020.63 1020.63 1020.59
1009.83 1009.99 1010.03 1010.07 1010.07 1010.15 1010.31 1010.59 1010.87 1011.23 1011.55 1011.83 1012.11 1012.31 1012.47 1012.59 1012.75 1012.99 1013.15 1013.39 1013.75 1014.11 1014.55 1014.95 1015.31 1015.55 1015.79 1016.07 1016.39 1016.71 1016.95 1017.15 1017.27 1017.43 1017.71 1017.91 1018.07 1018.23 1018.39 1018.59 1018.79 1018.91 1018.99 1019.03 1019.07 1019.11 1019.15 1019.15 1019.23 1019.31 1019.35 1019.43 1019.51 1019.67 1019.83 1020.03 1020.23 1020.39 1020.47 1020.59 1020.63 1020.63 1020.63 1020.63 1020.67 1020.71 1020.71 1020.67 1020.59
1009.87 1010.07 1010.19 1010.35 1010.43 1010.47 1010.51 1010.75 1011.11 1011.51 1011.87 1012.15 1012.43 1012.63 1012.75 1012.87 1013.03 1013.15 1013.31 1013.59 1013.87 1014.15 1014.55 1015.03 1015.39 1015.71 1015.99 1016.23 1016.51 1016.79 1017.07 1017.31 1017.43 1017.55 1017.71 1017.87 1018.07 1018.23 1018.43 1018.63 1018.83 1018.99 1019.11 1019.19 1019.23 1019.23 1019.27 1019.23 1019.23 1019.23 1019.31 1019.47 1019.63 1019.79 1020.03 1020.23 1020.47 1020.63 1020.75 1020.83 1020.87 1020.83 1020.75 1020.71 1020.67 1020.67 1020.71 1020.67 1020.59
1009.87 1010.07 1010.23 1010.31 1010.43 1010.47 1010.59 1010.91 1011.31 1011.71 1011.99 1012.23 1012.47 1012.75 1012.91 1013.07 1013.27 1013.43 1013.59 1013.83 1014.11 1014.39 1014.71 1015.11 1015.51 1015.83 1016.07 1016.31 1016.59 1016.87 1017.15 1017.43 1017.59 1017.67 1017.79 1017.91 1018.11 1018.27 1018.43 1018.59 1018.83 1019.07 1019.27 1019.35 1019.35 1019.31 1019.31 1019.27 1019.31 1019.35 1019.51 1019.75 1019.91 1020.07 1020.27 1020.47 1020.67 1020.83 1020.91 1020.91 1020.91 1020.87 1020.79 1020.75 1020.71 1020.71 1020.75 1020.75 1020.75
Wind_Speed
11 10 9 9 9 8 8 7 7 7 7 8 8 8 8 8 8 8 7 7 7 7 6 6 6 6 6 8 10 10 10 9 10 10 10 9 9 9 9 9 9 9 9 9 8 8 7 7 6 5 4 4 5 4 4 3 4 4 4 4 4 4 5 6 5 5 5 4 4
13 12 10 10 9 8 8 7 7 7 7 8 8 9 9 8 9 8 8 8 8 7 7 6 6 7 8 10 11 11 10 10 11 10 10 9 9 9 9 9 9 10 10 10 9 8 7 7 7 5 5 4 4 4 4 3 4 5 5 5 4 4 4 5 5 5 5 5 4
13 12 11 11 10 10 9 8 8 9 10 9 9 9 9 8 8 8 9 9 9 8 7 7 8 9 10 11 11 11 10 10 11 11 10 9 9 9 9 9 10 10 10 10 9 8 8 8 7 6 5 5 5 5 5 3 4 4 5 5 4 3 3 4 4 4 4 4 4
14 13 13 13 13 13 12 10 11 11 11 9 9 9 8 8 8 8 8 8 9 8 8 8 9 9 9 10 11 10 10 10 11 11 10 9 9 9 10 10 10 10 10 10 10 9 8 8 6 5 5 5 6 5 4 4 4 4 4 4 3 3 3 3 3 4 4 4 4
14 14 13 13 14 14 13 11 12 12 11 9 9 8 8 8 7 7 7 8 9 9 9 10 9 9 9 9 10 10 9 9 10 10 10 10 10 10 10 10 10 10 10 10 10 9 9 8 6 5 5 5 5 5 4 4 4 4 3 2 2 3 3 3 3 3 3 3 3
15 15 14 13 14 13 12 11 12 12 11 10 10 10 9 9 8 8 9 10 10 10 10 10 9 9 9 9 10 10 9 8 9 9 10 10 9 9 10 10 10 10 10 9 9 9 9 8 6 5 4 5 4 4 4 5 5 4 3 2 2 2 3 3 3 3 2 2 2
15 15 15 14 15 14 13 12 12 12 11 10 12 12 12 11 11 11 12 11 10 9 9 9 9 10 10 11 10 10 10 9 9 9 10 10 9 10 10 10 10 10 10 10 9 9 8 8 6 5 5 5 4 4 4 5 5 5 4 3 2 2 2 3 2 3 3 3 3
15 16 16 15 15 15 15 14 12 12 12 11 13 14 15 14 14 13 12 11 10 10 10 10 11 12 12 12 12 12 11 11 10 10 10 10 10 10 10 10 9 10 10 10 10 9 8 7 6 6 6 5 5 5 5 6 6 6 5 4 2 2 1 2 2 3 3 4 4
14 15 15 15 15 16 16 15 14 14 13 13 14 15 15 15 15 14 13 11 11 11 11 11 12 13 13 13 14 13 13 13 12 12 11 11 12 12 11 10 10 10 10 9 9 9 9 7 6 5 5 5 5 5 6 7 8 7 6 5 3 2 1 1 2 3 3 4 5
15 15 15 15 16 16 16 15 15 15 15 15 15 14 14 14 14 14 13 11 10 11 11 12 13 13 14 14 14 14 13 13 13 13 13 13 13 13 12 11 11 11 10 9 8 8 8 6 5 5 4 4 5 6 7 7 8 8 7 5 4 3 2 2 2 3 3 4 6
16 16 16 15 16 16 16 16 15 15 15 15 14 14 14 14 14 13 12 11 10 12 13 13 13 14 14 14 14 14 14 13 12 13 13 14 14 13 13 12 12 12 11 9 8 8 8 7 6 6 5 5 5 6 7 7 8 8 8 6 5 5 4 3 3 2 3 5 7
16 16 16 16 16 16 16 16 14 14 14 15 14 14 14 14 14 13 13 12 12 13 14 13 14 14 14 13 14 13 13 13 13 13 14 14 14 13 12 11 11 11 11 10 10 9 8 8 8 7 7 6 6 6 7 8 8 8 8 7 6 6 5 4 3 3 4 6 8
16 16 16 16 16 16 16 16 14 14 14 15 14 14 14 13 13 13 13 13 13 13 12 12 13 14 14 13 13 13 13 14 14 14 13 13 13 12 11 10 10 11 11 11 11 10 9 9 9 9 9 8 7 7 8 9 9 9 8 7 7 6 5 5 5 5 6 7 8
16 16 16 16 16 16 16 16 14 14 14 15 14 14 13 13 13 13 13 13 13 13 12 12 12 12 13 13 13 14 14 14 14 14 14 13 12 12 11 10 11 11 11 11 11 10 10 9 9 10 10 10 9 8 9 10 9 9 9 8 7 7 6 5 6 7 7 9 9
16 17 16 16 16 15 15 16 14 13 14 15 14 14 13 12 12 12 12 13 13 12 12 12 11 11 12 13 14 14 15 14 15 14 14 13 12 12 12 11 12 12 11 10 10 10 10 10 10 10 10 10 10 9 9 9 9 8 8 8 7 7 6 6 7 7 8 9 9
17 17 17 16 16 16 15 15 13 13 13 14 14 13 13 12 11 12 12 13 12 12 11 12 12 12 12 13 14 15 15 14 14 14 14 13 13 13 13 12 13 12 11 11 10 10 10 10 10 10 11 11 10 10 9 8 8 7 7 6 6 6 6 6 7 8 9 9 9
18 18 17 17 17 17 17 16 14 13 14 14 14 14 13 12 11 12 12 13 12 12 13 14 13 13 12 13 13 14 14 13 13 13 13 13 13 13 13 13 13 12 12 12 12 12 11 10 10 10 11 11 10 9 8 7 6 6 6 5 5 5 6 7 8 9 9 10 10
19 18 18 17 18 18 18 18 16 15 15 15 15 14 13 12 12 12 12 13 13 14 14 15 14 13 13 14 13 13 13 13 13 13 13 13 13 13 13 13 12 12 12 12 13 13 13 12 11 10 10 10 9 8 7 6 6 5 5 4 4 5 7 8 9 9 10 10 11
19 19 18 18 19 19 19 19 18 17 16 15 15 14 14 13 13 13 13 13 14 15 15 15 14 14 14 15 14 13 12 13 13 13 13 13 13 13 13 12 12 12 13 13 13 14 13 13 12 11 10 10 9 7 6 6 6 5 5 5 6 7 8 9 10 10 10 11 11
19 19 19 19 19 19 19 19 18 17 16 15 15 15 15 14 14 14 14 14 14 14 15 15 15 14 14 14 14 13 12 11 12 13 13 13 13 13 13 13 13 13 13 14 14 14 13 13 12 12 11 10 9 7 7 6 5 5 5 5 6 7 8 9 10 11 11 11 11
20 20 20 20 20 19 19 19 18 17 16 15 15 15 15 15 14 14 14 14 14 13 14 15 15 15 14 14 14 14 12 10 11 12 13 12 13 13 14 14 14 14 14 14 13 13 13 12 12 11 10 9 8 8 7 6 5 5 6 6 7 7 8 9 10 11 11 11 10
20 20 20 20 20 19 19 18 17 16 15 15 15 15 15 15 14 14 14 13 13 13 13 14 14 14 14 14 14 14 12 10 11 11 11 11 12 13 13 13 14 14 14 14 13 12 11 11 10 10 9 8 8 8 7 6 6 6 7 7 7 8 8 9 9 9 10 10 10
20 20 19 19 18 17 17 15 14 14 14 14 14 14 14 14 14 13 13 12 12 13 12 11 12 13 14 14 14 13 12 10 11 11 11 11 11 12 13 13 14 14 14 12 12 11 10 9 9 9 8 8 8 7 7 6 6 6 7 7 8 8 9 8 8 8 8 8 8
18 17 16 14 14 13 12 10 9 9 9 11 12 13 13 13 12 12 12 12 12 12 11 9 9 10 11 12 12 12 12 12 12 12 11 11 12 12 13 12 12 13 12 10 9 10 9 8 8 8 8 7 7 7 6 6 6 7 7 7 8 9 9 9 7 7 7 7 7
15 13 11 9 9 8 7 6 5 4 6 8 9 10 10 11 11 11 12 12 12 12 10 8 8 9 10 11 11 12 12 12 12 12 12 12 12 12 12 11 10 9 9 7 9 10 10 8 7 7 7 7 6 6 5 6 6 6 7 8 8 9 10 10 9 7 7 7 6
11 9 8 8 8 9 9 9 6 4 6 7 7 7 7 9 9 10 11 12 12 12 10 8 8 9 9 10 11 11 11 11 11 11 12 12 12 11 10 9 8 7 7 7 10 11 11 10 9 8 7 6 5 5 5 5 5 6 7 8 9 10 10 11 10 8 7 6 5
9 8 8 9 10 10 10 10 7 5 6 6 6 7 7 8 8 9 10 11 11 10 9 8 8 9 9 9 11 11 11 10 9 9 10 10 11 11 10 8 7 6 6 8 11 12 12 11 10 8 7 5 5 5 5 5 5 6 7 8 9 10 11 12 11 9 6 4 4
9 9 9 10 11 11 11 10 8 6 6 5 7 7 7 8 8 9 10 9 8 7 6 6 7 7 7 8 10 11 11 10 9 8 8 10 11 11 10 9 7 7 8 11 13 13 12 10 9 8 7 6 5 4 5 5 5 6 7 8 9 10 10 11 9 7 6 4 4
7 8 9 10 11 11 10 10 9 8 7 6 7 7 8 8 8 9 9 8 7 5 5 4 5 5 5 7 8 10 10 11 9 9 9 10 11 11 10 9 8 8 10 13 14 13 11 10 9 8 8 7 5 4 4 5 5 6 7 7 8 8 9 8 7 6 5 5 4
5 6 7 9 10 10 9 9 9 9 8 7 8 8 8 8 9 9 9 9 8 6 5 4 4 5 6 8 8 8 8 9 8 8 9 11 10 9 9 8 7 8 10 13 13 12 11 9 9 8 8 8 6 5 5 5 6 6 7 7 7 8 8 7 6 5 5 5 5
6 6 6 7 8 9 10 10 10 9 8 7 9 9 10 10 10 9 9 8 7 6 5 5 5 6 7 7 7 7 7 7 7 8 8 9 9 8 7 7 7 7 8 11 11 10 9 9 8 9 9 10 8 6 6 6 7 7 7 7 7 7 7 6 6 6 6 6 6
8 8 8 8 9 10 11 12 11 10 9 8 9 9 10 10 9 9 8 7 7 6 6 5 6 7 7 7 6 6 6 7 7 7 8 8 9 8 7 7 7 7 7 9 9 9 8 8 9 10 10 11 9 8 7 7 7 7 7 7 7 7 7 6 6 6 7 7 7
9 10 10 11 12 12 12 12 11 10 9 8 8 9 10 10 9 9 8 7 7 6 6 6 6 7 7 7 6 6 7 7 8 8 8 9 9 9 8 7 7 6 7 8 8 8 8 9 10 11 12 12 10 8 7 7 6 5 5 5 6 6 6 7 7 7 7 8 7
10 12 13 14 14 14 13 11 11 10 10 8 8 9 9 9 9 8 7 6 5 5 6 5 6 6 6 6 7 7 8 7 8 8 9 9 9 8 7 6 5 5 6 7 7 8 9 10 11 12 12 12 9 7 6 6 5 4 4 4 4 5 5 6 7 7 7 7 6
10 12 14 15 15 14 13 11 11 10 9 8 8 8 9 8 8 8 7 5 5 5 5 5 5 5 5 5 6 7 8 9 9 9 9 9 8 8 7 6 5 5 5 6 7 8 10 11 12 12 12 10 7 5 5 5 4 3 3 4 4 5 5 6 6 6 6 6 5
8 10 13 15 15 14 12 11 9 9 8 8 8 8 8 8 7 6 6 6 5 5 5 5 6 6 6 6 5 6 7 9 9 9 9 9 8 8 7 6 5 5 5 6 8 9 11 12 12 12 10 7 5 4 4 3 3 3 3 4 5 6 6 6 6 5 5 4 4
5 7 9 13 13 12 10 8 7 8 9 9 8 8 8 8 7 6 6 6 6 5 6 6 7 8 8 7 6 6 6 9 9 9 8 8 8 8 7 6 5 5 5 7 9 10 12 13 12 11 9 6 4 3 3 2 2 2 3 4 5 6 6 5 4 4 4 3 4
4 3 4 7 9 8 7 7 9 10 10 9 7 6 6 6 6 5 5 6 6 6 7 6 7 8 8 9 9 8 7 8 8 8 8 7 7 7 7 7 5 5 5 7 10 11 12 13 12 11 9 5 4 3 3 2 2 2 3 4 4 4 4 3 2 2 2 3 3
5 5 4 3 4 5 7 8 9 9 9 8 7 6 5 5 5 5 5 6 7 8 8 8 8 8 8 9 9 8 7 7 7 8 8 7 7 7 7 7 5 5 5 7 9 10 11 12 11 11 9 5 3 3 2 2 2 1 2 2 2 3 3 3 2 2 2 3 5
5 5 5 4 4 5 7 8 8 8 8 8 7 6 5 5 5 5 6 6 7 8 9 9 9 9 9 9 9 8 7 6 6 7 7 7 7 7 7 7 6 4 2 2 3 4 5 6 6 5 4 3 3 3 2 2 2 2 2 2 3 3 3 3 2 2 2 3 4
4 5 5 5 7 8 10 10 9 9 8 8 8 7 6 6 6 6 6 6 6 7 8 8 9 9 9 8 8 8 8 7 6 6 6 7 7 7 7 7 5 3 4 6 7 7 7 6 5 5 6 6 5 4 4 3 3 3 3 3 3 3 3 3 3 3 3 3 3
Wind_Direction
176 177 178 178 177 177 177 178 178 178 178 177 180 181 181 180 182 184 186 188 189 190 189 184 182 180 176 172 179 183 184 179 178 179 178 175 172 170 169 170 169 168 166 165 164 163 162 160 158 160 164 166 165 165 166 163 157 153 150 148 149 147 148 153 159 161 161 162 159
180 179 179 179 178 178 178 178 180 181 182 181 182 182 182 182 182 184 185 188 189 188 186 183 181 179 178 177 182 184 184 180 179 179 178 176 173 170 169 171 172 170 168 166 166 166 166 165 164 166 168 168 163 165 167 167 156 152 152 156 155 151 151 159 166 166 164 163 158
182 181 181 181 182 181 181 181 183 184 185 184 184 184 184 184 184 185 186 189 188 187 186 186 184 182 180 179 183 185 184 181 179 178 178 177 174 172 171 173 173 172 170 169 169 169 169 169 169 169 170 171 168 169 170 170 160 156 157 164 158 152 156 168 170 168 163 160 157
184 183 183 185 185 185 185 184 184 185 185 184 185 185 185 186 186 186 186 186 187 188 189 188 185 183 181 180 183 185 184 181 178 177 177 178 176 175 174 174 174 174 173 171 171 171 170 171 171 171 169 168 169 170 171 169 164 163 163 165 155 155 163 174 172 168 164 161 160
187 187 187 188 188 188 187 186 184 184 185 184 184 186 188 188 187 186 185 186 189 192 192 188 185 182 181 179 180 181 181 179 178 178 178 179 178 178 177 176 176 175 174 173 173 172 171 171 171 170 168 168 172 174 171 162 163 164 164 160 155 160 168 174 172 168 162 158 162
190 190 190 190 189 189 189 188 184 184 185 185 186 188 189 189 188 187 187 189 191 190 188 185 183 181 178 177 178 178 178 177 180 180 180 180 180 179 179 179 179 177 175 176 175 173 171 170 170 168 167 167 172 171 164 156 161 164 165 165 168 167 167 173 170 165 158 153 162
192 192 191 191 190 190 191 189 185 185 186 188 189 190 191 191 190 189 189 189 186 185 184 184 183 181 178 177 178 178 178 177 181 181 181 181 181 181 182 182 181 179 177 177 176 174 172 172 170 169 168 168 170 167 162 159 164 167 171 177 177 168 163 172 163 157 156 161 170
194 194 193 191 190 191 192 189 186 186 188 192 193 193 193 192 190 189 187 185 184 183 184 185 185 182 180 179 180 180 178 176 179 181 182 182 181 182 183 183 183 183 182 180 178 177 176 176 174 172 171 171 170 167 165 165 166 169 174 181 182 171 154 155 151 152 158 164 179
196 196 195 193 192 192 192 191 188 188 191 195 196 195 194 192 190 187 186 186 185 184 185 186 185 183 181 181 182 182 180 178 179 181 181 181 180 181 182 183 187 188 187 182 179 178 178 181 180 176 173 171 169 168 167 167 168 170 174 181 181 175 145 116 136 145 153 167 193
196 197 196 195 194 193 193 193 191 191 193 196 196 195 194 192 190 188 187 188 184 184 186 187 185 183 182 184 185 185 184 181 181 181 181 182 181 182 183 185 188 189 188 182 178 178 179 184 181 177 172 168 164 164 165 168 169 170 174 181 182 175 161 129 128 135 154 186 208
196 197 197 196 194 193 193 194 194 195 196 198 197 195 194 193 192 190 188 185 182 184 188 187 183 183 184 185 187 188 187 185 184 183 184 185 186 186 186 186 186 185 183 178 175 177 181 185 181 175 171 167 162 163 166 171 171 173 176 184 183 179 170 150 129 139 178 209 218
196 197 198 197 194 193 193 195 195 197 198 199 197 196 195 196 194 191 187 183 183 185 188 186 183 184 185 186 188 189 188 187 186 186 187 189 189 189 187 185 184 183 181 177 177 179 182 184 179 175 172 169 167 168 171 175 175 177 181 186 183 180 175 162 157 179 207 219 223
197 198 198 198 194 192 193 195 197 198 199 199 198 197 196 196 194 190 187 184 184 185 186 185 184 185 186 187 187 189 189 189 188 188 190 191 191 189 186 184 183 183 183 182 182 184 185 183 178 175 174 174 175 176 176 177 178 181 184 186 183 180 177 175 189 205 217 222 225
198 198 198 198 194 193 194 196 198 199 199 200 199 197 196 195 193 190 188 187 185 184 184 184 185 186 187 187 187 189 190 190 190 190 191 191 190 188 186 185 184 185 186 186 185 185 184 183 179 177 177 177 179 179 178 178 180 183 185 183 180 180 182 190 204 215 222 224 225
199 200 199 198 195 194 195 197 199 200 199 199 199 197 195 194 191 190 189 188 185 183 182 182 185 187 188 187 188 189 191 192 191 191 191 190 188 187 186 186 185 186 186 184 184 184 184 181 180 181 181 182 182 181 179 178 181 182 181 178 177 180 188 203 215 222 225 225 224
201 201 200 198 196 196 196 197 200 200 199 199 197 196 194 193 190 189 189 187 185 183 182 183 184 186 187 188 189 190 191 192 191 191 190 189 188 187 187 186 184 184 183 181 182 184 184 183 183 184 185 185 185 183 181 179 178 176 174 174 176 185 198 214 223 228 229 226 224
202 202 201 199 198 198 198 198 200 200 198 197 196 194 193 191 189 188 188 186 184 184 184 184 184 184 186 189 189 189 190 192 192 191 190 189 187 187 187 186 182 180 179 180 182 184 185 185 185 186 186 186 186 184 181 177 171 168 168 172 182 199 214 226 232 234 232 228 225
203 203 202 201 200 199 199 199 200 199 198 195 193 193 192 190 187 187 187 186 185 184 184 183 184 184 185 187 188 189 189 191 192 192 191 189 187 187 186 184 180 178 178 181 184 185 185 185 185 186 186 186 185 182 176 167 163 163 168 178 199 215 227 234 238 238 236 231 227
204 204 203 203 202 201 200 199 200 199 196 192 191 191 190 188 185 185 186 187 186 185 183 182 184 185 185 186 187 188 189 190 191 191 191 188 185 184 184 181 177 177 180 184 187 187 186 184 184 184 184 184 181 174 163 156 160 166 177 194 213 225 233 239 242 242 239 234 230
204 205 205 205 204 203 201 200 199 198 195 191 189 189 188 186 184 184 185 187 186 184 182 182 183 184 184 185 186 187 188 189 189 190 189 187 184 182 180 177 176 178 182 187 189 189 187 184 182 183 182 180 172 163 155 153 162 175 192 210 222 231 238 243 245 244 242 236 231
205 206 206 206 205 204 202 201 199 196 193 189 188 187 186 183 182 183 184 184 182 182 182 183 182 182 182 183 185 186 188 187 187 188 188 185 182 180 178 176 176 180 185 189 190 190 188 184 182 181 178 172 164 158 155 159 171 189 206 219 228 235 241 246 246 245 240 235 229
206 206 206 206 205 204 202 200 198 195 192 189 188 187 185 182 181 180 180 179 178 180 182 185 183 181 181 182 184 185 185 184 184 185 185 182 180 179 178 176 178 181 185 189 189 188 186 183 179 174 169 161 157 156 160 168 184 202 216 226 233 240 244 246 245 242 236 229 223
206 206 206 205 204 202 200 197 194 192 191 190 189 187 184 181 178 176 175 176 177 179 181 183 183 182 181 180 182 182 182 180 181 182 182 179 179 179 179 178 179 182 185 187 186 184 181 178 172 164 157 153 155 161 169 181 195 209 221 230 238 243 245 245 242 237 232 226 219
205 204 204 203 200 196 191 184 181 184 190 193 190 187 183 179 175 172 171 175 175 176 177 181 183 182 180 178 179 179 178 177 178 179 179 177 178 179 179 179 180 182 184 184 181 178 174 169 164 158 152 152 159 168 180 191 203 214 224 232 240 245 247 245 239 234 229 224 218
203 200 197 190 181 169 155 141 148 181 206 207 194 187 182 178 172 169 170 174 174 172 172 177 180 179 177 176 177 177 177 176 176 176 176 176 177 178 178 178 179 180 181 179 172 166 160 155 153 152 152 155 164 174 187 199 209 217 225 233 239 245 247 247 241 235 227 220 214
195 186 171 155 141 130 123 120 129 180 217 214 192 181 177 175 169 168 170 174 173 171 171 177 179 177 175 174 174 175 175 175 176 176 176 176 176 175 175 175 175 176 174 166 156 149 143 139 140 143 149 157 167 180 195 209 216 223 229 235 239 242 244 244 242 238 232 223 216
181 165 147 135 129 127 126 127 141 178 211 207 180 170 166 164 164 167 171 174 173 171 171 176 175 172 170 170 171 172 173 173 174 176 177 177 175 174 173 173 172 168 158 146 141 137 135 134 137 141 147 158 171 186 200 216 223 229 233 237 238 238 237 236 234 233 233 234 229
170 155 143 136 136 136 136 136 149 172 193 188 169 160 156 155 160 165 169 171 170 169 170 170 165 163 164 167 170 171 170 168 170 174 176 176 173 173 173 173 169 158 146 142 140 139 139 142 145 150 155 164 179 194 207 218 227 231 234 235 233 230 227 224 223 222 224 233 239
166 155 149 147 147 145 143 141 150 158 163 161 152 147 146 148 154 158 160 161 161 163 164 160 154 155 160 165 167 166 165 166 167 170 172 172 172 172 172 169 160 149 143 143 144 146 149 154 159 165 171 179 190 203 215 223 228 231 231 229 224 220 216 214 213 212 215 222 232
180 168 160 155 152 147 143 140 141 141 141 140 136 135 137 140 144 148 150 151 152 153 151 145 148 157 162 162 159 160 163 166 165 165 167 168 168 167 163 155 149 144 143 145 147 150 156 163 172 181 189 195 202 211 220 225 226 225 223 220 215 211 208 207 205 208 212 218 226
182 171 159 150 146 142 136 132 129 128 127 126 129 131 134 137 141 144 145 145 140 133 128 131 149 158 159 154 152 155 159 161 159 159 160 159 154 150 145 139 139 140 142 144 148 154 162 172 184 195 203 205 209 215 220 222 220 217 214 211 208 206 205 204 205 208 213 217 224
168 162 153 145 142 136 130 125 122 119 117 116 123 127 131 134 136 136 134 130 121 115 115 126 146 154 154 149 147 149 151 150 149 148 147 144 141 139 139 138 141 143 144 147 153 161 172 184 196 206 211 211 214 215 216 215 212 209 208 206 206 205 205 206 211 215 218 222 226
159 154 149 145 141 135 129 124 119 116 113 114 119 123 126 127 126 125 124 121 115 114 119 131 143 150 151 146 140 140 141 141 139 137 137 138 138 140 142 144 147 149 151 154 162 173 185 197 207 214 216 214 214 212 210 207 204 204 204 207 210 210 210 213 219 223 226 229 230
153 147 143 141 136 132 129 125 121 119 119 121 123 124 124 123 123 124 123 119 115 117 123 133 141 146 145 138 137 139 141 139 135 135 136 138 139 142 146 152 156 157 159 163 174 186 198 208 215 218 217 213 210 206 202 200 200 202 207 217 223 225 225 225 228 231 233 234 235
147 140 136 134 130 128 126 123 120 120 122 127 128 128 128 127 129 129 127 119 114 114 120 126 129 130 129 126 133 137 138 137 137 138 139 140 142 145 150 158 163 166 170 177 189 200 208 215 218 217 213 205 201 197 195 195 198 205 216 229 238 241 240 237 237 237 237 235 234
145 136 132 129 128 126 124 120 117 120 127 138 140 139 137 134 133 130 125 116 111 112 117 119 120 123 126 128 132 135 138 139 141 142 144 144 147 152 159 167 174 181 187 193 202 209 214 217 216 210 202 191 189 189 189 187 195 210 225 237 244 246 245 243 242 241 239 235 231
157 141 134 130 129 128 127 127 136 146 154 157 151 144 138 133 130 127 121 114 113 116 119 121 127 132 138 140 140 140 140 142 143 145 147 150 154 159 166 175 185 196 203 204 209 212 214 214 209 200 189 180 183 183 181 177 195 216 230 239 245 248 248 248 248 249 249 247 241
206 189 161 141 136 138 148 165 168 166 161 152 140 131 126 125 126 125 123 119 124 128 130 131 137 141 143 142 140 139 140 143 145 148 152 158 163 167 171 179 191 203 209 207 207 208 208 208 203 194 184 177 179 178 177 179 199 219 233 241 251 259 266 276 284 288 287 285 284
235 232 224 210 173 162 162 165 160 151 140 128 122 119 120 123 127 129 129 126 133 137 140 140 143 142 141 138 138 139 142 147 150 154 159 167 171 172 172 178 191 203 210 208 206 205 206 206 202 193 182 169 165 160 159 162 187 222 255 277 294 305 315 332 339 335 323 314 314
229 228 226 221 184 153 140 135 129 125 122 123 126 129 132 134 132 131 129 127 132 136 139 141 143 142 140 138 139 143 148 154 159 163 166 172 174 173 173 177 185 190 193 191 200 209 217 221 210 189 162 112 90 84 86 88 70 31 6 357 348 341 338 340 347 347 340 330 330
207 198 185 164 144 134 128 125 124 125 128 131 135 137 139 138 134 131 129 126 129 132 135 138 140 141 141 141 143 148 153 160 167 170 169 169 170 171 173 174 166 129 80 63 58 53 48 41 53 71 78 71 66 64 66 69 59 41 22 5 0 355 349 344 348 352 353 348 347